TimeAKST,TemperatureF,Dew PointF,Humidity,Sea Level PressureIn,VisibilityMPH,Wind Direction,Wind SpeedMPH,Gust SpeedMPH,PrecipitationIn,Events,Conditions,WindDirDegrees,DateUTC
12:08 AM,39.2,35.6,87,30.06,10.0,SSW,18.4,25.3,N/A,,Mostly Cloudy,200,2013-02-09 09:08:00
12:53 AM,39.0,35.1,86,30.06,10.0,SSW,16.1,24.2,N/A,,Mostly Cloudy,200,2013-02-09 09:53:00
1:53 AM,39.0,35.1,86,30.07,10.0,South,9.2,19.6,N/A,,Overcast,190,2013-02-09 10:53:00
3:53 AM,39.9,34.0,79,30.07,10.0,SSW,20.7,27.6,N/A,,Overcast,210,2013-02-09 12:53:00
4:53 AM,39.9,34.0,79,30.05,10.0,SSW,16.1,21.9,N/A,,Overcast,200,2013-02-09 13:53:00
5:53 AM,41.0,33.1,73,30.05,10.0,SSW,17.3,24.2,N/A,,Overcast,200,2013-02-09 14:53:00
6:53 AM,41.0,32.0,70,30.05,10.0,South,16.1,20.7,N/A,,Overcast,190,2013-02-09 15:53:00
7:53 AM,41.0,33.1,73,30.05,10.0,SSW,17.3,25.3,N/A,,Overcast,200,2013-02-09 16:53:00
8:53 AM,41.0,33.1,73,30.04,10.0,SSW,18.4,25.3,N/A,,Overcast,200,2013-02-09 17:53:00
9:53 AM,41.0,32.0,70,30.02,10.0,SSW,20.7,28.8,N/A,,Overcast,200,2013-02-09 18:53:00
10:53 AM,41.0,33.1,73,30.01,10.0,SSW,21.9,29.9,N/A,,Overcast,200,2013-02-09 19:53:00
11:53 AM,41.0,33.1,73,30.01,10.0,SSW,27.6,40.3,N/A,,Overcast,210,2013-02-09 20:53:00
12:53 PM,41.0,33.1,73,29.99,10.0,SSW,26.5,43.7,N/A,,Overcast,200,2013-02-09 21:53:00
1:53 PM,41.0,33.1,73,29.97,10.0,SSW,25.3,35.7,N/A,,Overcast,200,2013-02-09 22:53:00
2:53 PM,41.0,33.1,73,29.95,10.0,SSW,27.6,38.0,N/A,,Overcast,200,2013-02-09 23:53:00
3:53 PM,42.1,34.0,73,29.95,10.0,SSW,20.7,38.0,N/A,,Overcast,200,2013-02-10 00:53:00
4:53 PM,43.0,34.0,71,29.94,10.0,SSW,20.7,38.0,N/A,,Overcast,200,2013-02-10 01:53:00
5:53 PM,42.1,35.1,76,29.90,10.0,SSW,26.5,39.1,N/A,,Overcast,200,2013-02-10 02:53:00
6:53 PM,43.0,35.1,74,29.86,10.0,SSW,32.2,46.0,N/A,,Overcast,210,2013-02-10 03:53:00
7:53 PM,42.1,36.0,79,29.82,10.0,SSW,34.5,52.9,N/A,,Overcast,210,2013-02-10 04:53:00
8:53 PM,43.0,36.0,76,29.81,10.0,SSW,31.1,42.6,0.00,Rain,Light Rain,210,2013-02-10 05:53:00
9:53 PM,42.1,36.0,79,29.81,8.0,SSW,26.5,44.9,0.02,Rain,Light Rain,210,2013-02-10 06:53:00
10:53 PM,42.1,36.0,79,29.78,6.0,SSW,33.4,43.7,0.04,,Haze,210,2013-02-10 07:53:00
11:53 PM,41.0,36.0,82,29.78,5.0,SSW,32.2,43.7,0.02,,Haze,210,2013-02-10 08:53:00